Location: Gad�tanya
(48.0500°N, 20.8500°E)
Time: 10:23:26
(UTC+00:00)

Terra - Pass Details

Date: 05 July 2020
Orbit: 701 x 703 km, 98.2° (Epoch: 14 August)

Event Time Altitude Azimuth Distance (km) Brightness Sun altitude
Exits shadow 20:32:29 19° 170° (S) 1,656 3.2 -13.6°
Maximum altitude 20:35:57 81° 256° (WSW) 719 1.9 -13.9°
Drops below altitude 10° 20:40:45 10° 344° (NNW) 2,182 5.7 -14.3°
Sets 20:43:01 0° 346° (NNW) 3,105 6.8 -14.5°
